Location: Limerick
(52.6800°N, 8.6400°W)
Time: 10:10:17
(UTC+01:00)

Sapphire - Visible Passes

Search period start: 19 August 2017 00:00
Search period end: 29 August 2017 00:00
Orbit: 784 x 797 km, 67.1° (Epoch: 18 August)

Date Brightness Start Highest point End Pass type
(mag) Time Alt. Az. Time Alt. Az. Time Alt. Az.
19 Aug ? 01:33:48 54° SW 01:35:04 79° NW 01:40:34 10° NE visible
19 Aug ? 03:14:43 10° W 03:19:19 27° NNW 03:23:55 10° NNE visible
19 Aug ? 05:00:52 10° NW 05:04:33 18° N 05:08:13 10° NE visible
19 Aug ? 23:22:51 17° E 23:22:51 17° E 23:25:17 10° ENE visible
20 Aug ? 01:03:32 64° SSW 01:04:23 84° SE 01:09:53 10° NE visible
20 Aug ? 02:44:14 13° W 02:48:25 30° NNW 02:53:14 10° NNE visible
20 Aug ? 04:29:49 10° NW 04:33:32 18° N 04:37:16 10° NE visible
20 Aug ? 22:52:31 13° E 22:52:31 13° E 22:53:51 10° ENE visible
21 Aug ? 00:33:12 62° SSE 00:33:44 67° ESE 00:39:10 10° NE visible
21 Aug ? 02:13:54 17° W 02:17:33 35° NW 02:22:34 10° NNE visible
21 Aug ? 03:58:44 10° NW 04:02:33 19° N 04:06:22 10° NE visible
21 Aug ? 05:43:50 10° NNW 05:47:56 21° NNE 05:52:02 10° ENE visible
22 Aug ? 00:02:47 51° SE 00:03:07 52° ESE 00:08:25 10° NE visible
22 Aug ? 01:43:28 21° W 01:46:43 42° NW 01:51:54 10° NNE visible
22 Aug ? 03:27:37 10° WNW 03:31:34 20° NNW 03:35:32 10° NNE visible
22 Aug ? 05:13:02 10° NNW 05:16:58 20° NNE 05:20:53 10° ENE visible
22 Aug ? 23:32:15 40° SE 23:32:33 41° ESE 23:37:38 10° NE visible
23 Aug ? 01:12:55 24° WSW 01:15:56 50° NW 01:21:15 10° NE visible
23 Aug ? 02:56:27 10° WNW 03:00:36 21° NNW 03:04:44 10° NNE visible
23 Aug ? 04:42:11 10° NW 04:45:58 19° N 04:49:46 10° NE visible
23 Aug ? 23:01:32 31° ESE 23:02:00 32° ESE 23:06:47 10° NE visible
24 Aug ? 00:42:12 27° WSW 00:45:09 61° NW 00:50:35 10° NE visible
24 Aug ? 02:25:18 10° WNW 02:29:39 23° NNW 02:33:59 10° NNE visible
24 Aug ? 04:11:16 10° NW 04:14:59 18° N 04:18:40 10° NE visible
24 Aug ? 22:30:32 23° SE 22:31:30 25° ESE 22:35:50 10° ENE visible
25 Aug ? 00:11:10 25° SW 00:14:26 75° NW 00:19:55 10° NE visible
25 Aug ? 01:54:10 10° W 01:58:43 26° NNW 02:03:17 10° NNE visible
25 Aug ? 03:40:18 10° NW 03:43:58 18° N 03:47:38 10° NE visible
25 Aug ? 05:24:39 10° NNW 05:29:14 26° NNE 05:33:46 10° E visible
25 Aug ? 21:58:59 16° SE 22:01:02 19° ESE 22:04:45 10° ENE visible
25 Aug ? 23:39:33 18° SW 23:43:44 88° SE 23:49:14 10° NE visible
26 Aug ? 01:23:04 10° W 01:27:49 30° NNW 01:32:35 10° NNE visible
26 Aug ? 03:09:16 10° NW 03:12:58 18° N 03:16:40 10° NE visible
26 Aug ? 04:53:56 10° NNW 04:58:18 23° NNE 05:02:38 10° ENE visible
26 Aug ? 21:27:47 10° SE 21:30:36 14° ESE 21:33:25 10° ENE visible
26 Aug ? 23:07:40 10° SSW 23:13:05 71° SE 23:18:31 10° NE visible
27 Aug ? 00:52:00 10° W 00:56:57 34° NNW 01:01:55 10° NNE visible
27 Aug ? 02:38:11 10° NW 02:41:58 19° N 02:45:45 10° NE visible
27 Aug ? 04:23:12 10° NNW 04:27:21 21° NNE 04:31:30 10° ENE visible
27 Aug ? 22:37:09 10° SSW 22:42:27 55° ESE 22:47:47 10° NE visible
28 Aug ? 00:20:59 10° WSW 00:26:06 40° NW 00:31:15 10° NNE visible
28 Aug ? 02:07:04 10° WNW 02:10:59 20° NNW 02:14:54 10° NNE visible
28 Aug ? 03:52:25 10° NNW 03:56:23 20° NNE 04:00:20 10° ENE visible
28 Aug ? 05:36:01 10° NNW 05:41:12 42° NE 05:46:22 10° ESE visible
28 Aug ? 22:06:46 10° S 22:11:52 43° ESE 22:17:00 10° NE visible
